Back to catalog

ONEWEB-0425

AliveCommunicationsPO
NORAD 51628·PAYLOAD·🇬🇧 United Kingdom

Launched Feb 10, 2022 from Guiana Space Centre

Loading…

Next Passes (next 24 hours)

TLE

FreshSource: CelesTrak SupGP

Epoch: Sep 14, 2026, 20:27 UTC

1 51628C 22012G   26257.85227266 -.00000706  00000+0 -20262-2 0  2574
2 51628  87.8907  18.4152 0001842 115.7224 356.9607 13.10373260    14

Track ONEWEB-0425 in real time with AllMySat

Download on the App Store